Probability
0 0 0 0 0 0 0 0 0 0 0 0 0 0 0 0 0 0 0 0 0 0 0 0 0 0 0 0 0 0 0 0 0 0 0 0 0 0 0 0 0 0 0
0 0 0 0 0 0 0 0 0 0 0 0 0 0 0 0 0 0 0 0 0 0 0 0 0 0 0 0 0 0 0 0 0 0 0 0 0 0 0 0 0 0 0
0 0 0 0 0 0 0 0 1 1 0 0 0 0 0 0 0 0 0 0 0 0 0 0 0 0 0 0 0 0 0 0 0 0 0 0 0 0 0 0 0 0 0
0 0 0 0 0 1 1 2 3 4 3 1 0 0 0 0 0 0 0 0 0 0 0 0 0 0 0 0 0 0 0 0 0 0 0 0 0 0 0 0 0 0 0
0 0 0 0 1 2 3 4 7 9 8 5 3 2 1 0 0 0 0 0 0 0 0 0 0 0 0 0 0 0 0 0 0 0 0 0 0 0 0 0 0 0 0
0 0 0 1 2 2 3 5 8 10 10 8 7 6 3 1 0 0 0 0 0 0 0 0 0 0 0 0 0 0 0 0 0 0 0 0 0 0 0 0 0 0 0
0 0 1 1 2 2 2 3 6 8 8 7 7 7 4 1 0 0 0 0 0 0 0 0 0 0 0 0 0 0 0 0 0 0 0 0 0 0 0 0 0 0 0
0 0 1 2 1 1 2 2 3 4 4 5 5 4 2 1 0 0 0 0 0 0 0 0 0 0 0 0 0 0 0 0 0 0 0 0 0 0 0 0 0 0 0
0 0 1 1 1 1 1 1 1 1 2 3 3 3 1 0 0 0 0 0 0 0 0 0 0 0 0 0 0 0 0 0 0 0 0 0 0 0 0 0 0 0 0
1 1 1 1 1 0 1 3 3 2 2 2 3 3 1 0 0 1 1 1 0 0 0 0 0 0 0 0 0 0 0 0 0 0 0 0 0 0 0 0 0 0 0
4 3 3 2 2 2 3 5 5 4 4 5 6 6 4 3 3 4 4 3 2 1 1 1 1 0 0 0 0 0 0 0 0 0 2 4 2 0 0 0 0 0 0
8 7 6 6 6 5 5 7 7 7 8 8 8 10 10 10 10 10 11 10 8 7 6 6 5 3 2 3 3 2 1 0 0 0 6 13 8 1 0 0 0 0 0
11 11 9 9 9 8 8 9 9 12 14 12 11 14 18 19 19 20 21 21 19 19 19 18 15 10 7 8 8 5 1 0 0 1 11 20 14 2 0 0 0 0 1
15 14 12 11 12 13 14 13 13 15 17 18 18 20 23 24 25 28 30 30 31 32 31 29 25 20 16 14 11 7 4 2 1 4 16 25 17 5 1 0 0 1 2
19 18 16 15 16 19 22 20 18 19 20 21 24 25 23 23 26 30 34 36 37 37 34 33 31 26 24 20 14 12 10 7 6 9 18 24 18 9 4 1 1 2 3
26 26 24 20 18 21 25 25 23 22 22 21 23 23 19 18 23 27 29 33 35 34 33 32 29 26 26 23 17 15 14 14 15 16 20 23 20 13 9 6 5 7 8
36 36 32 24 20 21 24 25 24 21 20 19 18 16 12 12 17 21 22 24 27 27 28 28 26 23 24 22 18 14 15 17 20 21 24 27 24 18 15 13 14 18 20
43 42 35 27 22 21 22 22 20 16 15 14 12 10 8 9 13 16 17 17 17 17 18 21 21 19 18 18 16 13 14 17 18 18 21 24 26 24 21 22 26 30 31
40 37 32 27 22 19 17 15 14 12 9 7 7 7 7 7 9 11 12 10 9 9 9 11 13 13 13 12 11 10 11 11 11 10 12 16 21 25 25 27 33 35 34
27 26 25 22 18 14 13 12 11 9 6 4 4 5 5 4 4 5 4 4 4 5 5 5 6 8 8 8 6 5 5 5 5 4 6 11 16 20 23 28 35 36 35
16 17 17 16 14 11 12 13 12 10 8 7 5 4 4 3 3 2 3 4 6 6 6 5 5 5 5 5 3 2 2 2 2 2 5 10 13 16 19 25 33 38 39
10 11 12 12 11 10 11 15 16 14 12 9 7 7 7 7 7 6 7 9 11 10 8 7 6 4 2 1 1 1 1 1 0 1 4 8 12 16 18 19 25 33 36
6 7 9 10 9 9 10 13 16 16 13 10 10 12 12 11 10 10 10 11 11 9 7 6 5 3 1 0 1 1 1 1 1 1 3 7 11 15 16 14 17 23 27
3 5 9 12 11 10 10 11 13 13 11 10 12 14 14 11 9 9 9 10 9 6 4 4 3 2 1 1 2 2 3 3 2 1 1 3 6 10 14 14 15 20 24
1 3 9 14 15 13 12 12 12 11 10 10 12 13 12 9 8 9 8 8 7 4 3 4 4 3 2 3 3 3 4 4 3 2 1 1 2 5 10 12 15 20 23
0 1 7 14 18 17 14 13 13 12 10 11 12 11 9 8 8 8 7 7 6 4 3 4 5 4 3 3 3 3 4 4 3 1 0 0 1 2 5 9 12 18 21
Wind_Speed
13 17 18 13 12 11 11 12 14 13 13 13 13 13 12 12 11 10 10 9 8 7 6 6 7 7 7 8 8 9 9 9 10 10 11 12 12 12 12 12 12 13 15
16 18 18 13 12 11 11 12 12 12 12 13 12 12 12 11 10 10 9 8 7 6 6 6 6 7 8 8 8 9 9 9 9 10 11 12 12 12 11 8 6 13 14
17 18 18 13 12 12 11 11 12 12 11 12 12 12 11 10 10 9 8 7 6 6 6 6 6 6 7 8 8 8 8 8 8 9 10 10 12 11 10 9 14 14 14
17 17 16 16 13 12 12 11 11 12 11 11 11 11 10 10 9 8 8 7 6 5 5 5 5 6 6 7 7 7 7 7 7 7 7 8 11 12 10 12 13 13 13
16 15 16 16 14 13 12 12 12 12 11 11 10 10 9 8 8 7 7 6 5 5 5 5 5 5 6 6 6 6 6 6 6 8 5 6 9 11 11 12 12 13 13
16 15 17 15 15 13 13 12 12 11 11 10 9 9 8 7 7 6 6 5 5 4 5 5 5 5 5 5 5 5 5 5 9 5 5 6 9 11 11 11 12 12 12
15 15 18 15 15 14 13 12 12 11 11 10 9 8 7 6 6 5 5 4 3 3 4 4 4 4 4 5 4 4 4 5 7 4 4 5 9 10 10 10 11 12 12
14 15 17 15 14 14 13 12 12 11 11 10 9 8 7 6 5 5 4 4 3 3 4 4 4 4 4 4 4 4 3 7 6 5 4 5 11 9 9 10 10 11 12
13 13 14 15 14 13 12 11 11 11 10 10 9 8 7 7 6 5 5 4 4 4 4 5 5 5 5 5 5 5 5 6 9 3 5 4 11 9 9 10 10 11 11
11 11 11 12 12 12 12 12 10 10 9 9 9 8 8 7 7 7 8 7 6 5 5 6 6 7 7 7 6 6 6 7 10 6 4 6 11 10 10 11 11 11 11
9 9 10 10 10 9 9 11 11 10 9 9 9 9 8 7 7 8 7 5 6 7 7 7 7 8 8 9 9 8 8 8 9 6 4 9 11 10 11 11 12 12 12
11 10 8 8 8 7 6 7 6 7 7 7 5 6 6 4 3 5 4 5 7 8 8 9 8 9 10 8 10 11 8 10 8 6 5 11 10 11 12 12 13 13 14
10 9 8 7 6 6 4 4 3 2 3 4 4 4 3 3 3 4 3 4 6 8 7 6 8 8 8 6 5 7 8 8 6 6 6 13 11 12 13 13 14 15 15
9 8 7 7 6 4 3 2 3 3 2 3 3 4 3 3 4 3 3 4 4 3 4 4 4 6 7 8 8 9 9 7 7 6 4 12 11 12 14 14 14 16 16
9 8 7 5 5 5 4 3 3 2 3 3 2 3 4 4 4 4 3 4 4 3 4 4 5 6 7 8 9 10 10 10 10 9 5 11 12 13 14 15 15 17 18
8 7 6 6 5 4 3 3 3 2 2 2 2 3 4 4 3 4 4 4 4 4 4 4 6 6 6 6 9 9 10 10 10 10 10 9 14 14 15 16 16 17 18
8 7 7 5 5 4 3 3 3 3 3 2 1 2 3 4 3 4 4 4 3 4 4 5 6 6 6 7 9 10 9 10 10 10 10 9 9 15 17 16 17 16 18
7 7 6 5 5 4 3 2 2 2 1 1 1 1 2 3 3 4 3 3 2 4 4 4 5 6 6 6 7 8 8 8 10 11 11 10 9 9 14 18 17 17 18
6 6 6 4 4 4 3 2 2 1 1 1 1 1 1 2 3 3 2 1 3 3 4 5 4 5 6 7 7 7 8 8 9 11 12 13 12 11 10 12 17 18 19
6 6 6 5 4 4 4 3 2 1 1 1 1 1 2 2 3 4 3 2 4 4 3 3 5 5 6 6 8 8 8 8 8 9 11 11 11 13 13 12 11 14 19
6 6 6 5 5 4 3 2 2 2 2 2 2 2 3 3 3 4 5 3 4 4 4 5 5 6 6 5 7 8 9 11 10 9 9 10 12 12 12 12 11 10 10
6 6 6 6 5 5 3 2 2 2 3 2 3 2 4 4 4 5 4 5 4 4 5 5 5 7 7 5 6 7 8 7 7 9 8 9 10 9 11 13 13 12 11
7 6 5 5 4 4 3 3 2 3 4 4 3 3 4 5 5 5 5 6 5 7 5 5 6 7 7 7 5 6 7 6 6 5 6 7 7 7 8 9 13 13 14
7 6 5 5 4 3 4 4 5 5 5 4 4 4 4 5 6 6 6 6 6 7 6 7 7 6 8 8 6 5 7 7 7 7 6 6 7 8 8 8 10 11 12
6 5 5 4 4 3 3 3 5 6 5 5 5 5 6 6 6 6 6 6 6 7 7 7 7 8 8 9 8 6 6 6 8 8 8 7 7 6 6 7 7 8 10
5 5 5 4 3 3 3 3 4 5 6 7 7 7 7 6 5 6 6 6 7 7 6 7 7 9 8 9 8 8 8 7 7 7 8 8 8 7 6 5 6 7 8
Wind_Direction
152 140 141 150 149 146 146 149 154 155 155 154 153 152 151 149 147 145 143 139 134 128 115 101 96 94 96 99 104 109 114 116 116 117 118 118 120 121 123 132 143 117 119
144 139 142 149 148 144 141 140 144 148 150 151 151 152 151 150 148 146 145 143 140 133 119 105 98 97 99 101 105 112 117 121 123 125 128 126 123 124 129 135 106 113 129
142 139 147 148 146 141 135 133 135 138 141 145 148 148 148 148 149 148 147 147 145 137 125 114 107 102 102 105 110 117 121 125 129 139 160 141 125 127 127 113 109 126 129
142 144 151 145 147 142 136 131 131 132 135 138 142 145 145 146 148 150 151 151 151 144 133 125 116 110 109 111 116 122 127 127 135 177 175 129 131 128 133 127 129 132 131
140 142 139 149 149 146 141 135 133 132 134 136 139 142 144 147 150 153 153 157 159 151 143 133 123 119 119 120 123 128 130 132 160 218 124 124 120 133 141 138 138 138 136
144 147 140 153 150 149 145 141 138 136 137 138 140 143 148 152 156 161 164 169 171 163 152 144 137 133 132 132 134 138 143 155 207 168 133 144 128 142 149 148 146 144 143
150 146 143 153 152 152 151 148 145 144 144 145 148 151 156 161 166 169 170 174 172 168 160 154 153 153 152 150 155 159 169 203 244 145 156 143 123 142 158 158 154 151 150
151 149 141 152 155 157 157 155 154 153 154 155 158 162 167 173 181 186 190 194 197 188 177 174 176 174 177 175 177 185 206 245 231 182 179 140 122 155 167 165 163 161 159
154 147 150 158 159 161 161 162 162 163 164 166 169 173 179 185 191 199 206 214 216 210 200 197 197 197 200 199 200 205 220 257 271 215 192 154 138 170 180 175 174 172 169
155 154 157 162 160 167 168 168 170 172 175 178 182 185 190 196 204 208 215 206 223 227 224 219 218 214 211 213 214 217 225 242 250 229 213 148 149 185 194 189 186 185 181
160 159 167 161 164 175 175 161 176 179 182 189 191 190 205 218 212 205 221 179 220 234 235 232 230 227 223 216 218 218 225 238 233 238 221 131 161 195 206 202 197 195 193
167 170 165 165 160 178 178 163 189 193 182 209 204 197 213 228 245 259 137 201 235 242 241 235 237 235 233 226 206 208 229 233 245 229 193 144 178 204 215 213 207 203 201
168 172 165 163 165 181 177 183 194 199 190 211 218 223 230 244 241 255 249 214 229 235 242 228 227 239 239 238 238 224 237 246 239 241 196 160 189 212 220 220 214 209 206
170 171 167 163 170 183 191 193 208 211 206 218 212 244 247 250 252 247 250 257 253 253 260 263 258 252 257 259 251 250 244 242 248 246 204 167 194 216 223 224 219 214 210
166 168 161 168 171 180 187 227 221 232 235 230 246 243 252 251 257 260 262 269 267 259 252 257 261 264 261 257 255 250 249 246 248 248 228 183 199 217 226 227 225 220 215
165 164 162 171 175 188 201 229 241 236 234 259 246 257 261 260 260 265 259 259 265 262 268 268 265 264 263 264 259 256 254 252 248 247 250 216 203 213 224 229 230 225 219
160 158 158 164 171 186 207 238 255 259 258 265 279 280 279 272 268 264 262 258 264 265 258 259 265 262 257 256 255 254 250 248 248 245 247 248 229 212 215 224 228 226 222
152 153 158 161 168 177 190 213 241 262 262 282 270 259 276 289 275 270 272 268 277 269 266 263 262 266 264 264 264 261 256 250 248 247 244 239 244 241 215 214 221 223 223
140 143 148 151 159 163 173 180 177 189 259 270 268 276 282 277 277 273 280 288 264 270 276 282 288 288 281 274 269 258 256 252 248 247 246 245 238 237 240 213 212 220 224
136 144 146 153 161 170 171 179 183 186 211 246 263 281 281 273 273 285 262 250 270 272 277 284 288 279 283 281 281 278 268 260 250 246 246 245 240 234 235 236 221 219 220
148 157 162 168 168 183 183 204 205 209 230 237 246 242 255 269 273 274 287 270 268 278 290 287 282 275 271 282 281 277 267 253 247 247 244 245 241 236 237 234 233 231 216
166 175 179 186 186 201 191 224 249 278 266 267 268 244 257 263 268 263 276 276 268 275 264 270 271 285 287 278 287 292 282 264 235 241 241 237 242 240 236 234 231 229 234
178 189 189 186 188 201 202 222 229 241 254 247 254 245 257 268 267 278 274 278 282 273 273 277 276 270 282 281 271 285 291 293 310 265 252 250 247 248 246 244 237 232 229
188 189 190 189 195 198 216 240 259 269 282 296 287 281 273 263 268 268 270 272 275 280 283 269 269 276 270 273 262 253 272 299 294 291 271 252 245 246 249 249 244 235 231
194 194 189 186 191 199 227 242 262 275 289 292 290 279 276 269 263 268 271 275 274 275 283 288 289 276 272 270 275 269 265 263 259 272 283 287 270 254 249 249 251 245 235
192 193 188 184 193 202 227 247 265 288 293 298 293 292 282 277 270 268 270 274 273 279 281 275 277 268 268 276 276 275 271 268 267 270 275 278 278 272 263 262 255 246 238